Location: *
(37.5724°S, 58.0067°E)
Time: 10:35:07
(UTC+00:00)

Lacrosse 5 - Pass Details

Date: 21 January 2021
Orbit: 715 x 724 km, 57.0° (Epoch: 22 February)

Event Time Altitude Azimuth Distance (km) Brightness Sun altitude
Exits shadow 20:41:05 27° 226° (SW) 1,387 3.6 -32.5°
Maximum altitude 20:41:34 28° 216° (SW) 1,373 3.6 -32.5°
Drops below altitude 10° 20:45:59 10° 157° (SSE) 2,243 5.2 -32.4°
Sets 20:48:44 0° 145° (SE) 3,170 6.1 -32.3°
